Location: Apeadero de Los Molinos-Guadarrama
(40.7091°N, 4.0689°W)
Time: 11:51:50
(UTC+00:00)

Cosmos 962 Rocket - Pass Details

Date: 14 May 2021
Orbit: 950 x 1000 km, 82.9° (Epoch: 18 June)

Event Time Altitude Azimuth Distance (km) Brightness Sun altitude
Rises 22:29:13 0° 352° (N) 3,633 8.6 -25.8°
Reaches altitude 10° 22:31:42 10° 351° (N) 2,683 7.7 -26.0°
Maximum altitude 22:37:50 85° 265° (W) 962 4.4 -26.5°
Enters shadow 22:38:47 66° 187° (S) 1,036 4.3 -26.6°
